Weather History for Port Aransas, TX

Change the Weather History Date:

Friday, September 20, 2013

  Actual Average (KCRP) Record (KCRP)
Temperature  
Mean Temperature 84 °F 80 °F  
Max Temperature 88 °F 89 °F 98 °F (1947)
Min Temperature 80 °F 71 °F 59 °F (1981)
Degree Days  
Heating Degree Days 0 0  
Month to date heating degree days 0  
Since 1 July heating degree days 0  
Cooling Degree Days 19 15  
Month to date cooling degree days 341  
Year to date cooling degree days 2902  
Growing Degree Days 34 (Base 50)    
Moisture  
Dew Point 77 °F    
Average Humidity 81    
Maximum Humidity 89    
Minimum Humidity 70    
Precipitation  
Precipitation 0.01 in 0.16 in 3.48 in (1967)
Month to date precipitation 3.50  
Year to date precipitation 22.84  
Snow  
Snow 0.00 in - - ()
Month to date snowfall  
Since 1 July snowfall  
Since 1 September snowfall  
Snow Depth -    
Sea Level Pressure  
Sea Level Pressure 29.76 in    
Wind  
Wind Speed 14 mph (SSE)    
Max Wind Speed 20 mph    
Max Gust Speed 28 mph    
Visibility 8 miles    
Events Rain , Thunderstorm    
T = Trace of Precipitation, MM = Missing Value Source: NWS Daily Summary

Daily Weather History Graph

Daily Weather History Graph

Search for Another Location

Airport:

Trip Planner

Search our weather history database for the weather conditions in past years. The results will help you decide how hot, cold, wet, or windy it might be!

Date:

Astronomy

Sep. 20, 2013 Rise Set
Actual Time 7:16 AM CDT 7:26 PM CDT
Civil Twilight 6:52 AM CDT 7:50 PM CDT
Nautical Twilight 6:25 AM CDT 8:17 PM CDT
Astronomical Twilight 5:57 AM CDT 8:44 PM CDT
Moon 8:14 PM CDT (9/20) 8:21 AM CDT (9/20)
Length of Visible Light 12h 57m
Length of Day
12h 10m
Full, 98% of the Moon is Illuminated
Sep 20
Full
Sep 26
Last Quarter
Oct 4
New
Oct 11
First Quarter
Oct 18
Full

Hourly Weather History & Observations

Time (CDT) Temp. Heat Index Dew Point Humidity Pressure Visibility Wind Dir Wind Speed Gust Speed Precip Events Conditions
12:15 AM 81.9 °F 89.5 °F 76.6 °F 84% 29.83 in 10.0 mi SE 15.0 mph 19.6 mph N/A   Overcast
12:35 AM 82.4 °F 90.6 °F 76.8 °F 83% 29.83 in 10.0 mi SE 15.0 mph 21.9 mph N/A   Overcast
12:55 AM 82.6 °F 91.1 °F 77.0 °F 83% 29.83 in 10.0 mi SE 12.7 mph - N/A   Overcast
1:15 AM 82.8 °F 91.9 °F 77.5 °F 84% 29.82 in 10.0 mi SE 13.8 mph 19.6 mph N/A   Overcast
1:35 AM 82.4 °F 90.6 °F 76.8 °F 83% 29.82 in 10.0 mi SSE 16.1 mph 24.2 mph N/A   Overcast
1:55 AM 82.4 °F 90.9 °F 77.0 °F 84% 29.81 in 10.0 mi SSE 15.0 mph 23.0 mph N/A   Mostly Cloudy
2:15 AM 82.2 °F 90.4 °F 77.0 °F 84% 29.81 in 10.0 mi SSE 15.0 mph 23.0 mph N/A   Mostly Cloudy
2:35 AM 82.4 °F 90.9 °F 77.0 °F 84% 29.81 in 10.0 mi SSE 16.1 mph 21.9 mph N/A   Mostly Cloudy
2:55 AM 81.9 °F 89.2 °F 76.1 °F 83% 29.80 in 10.0 mi SSE 17.3 mph 20.7 mph N/A   Mostly Cloudy
3:15 AM 82.4 °F 90.6 °F 76.6 °F 83% 29.79 in 10.0 mi SSE 17.3 mph 24.2 mph N/A   Mostly Cloudy
3:35 AM 80.8 °F 86.9 °F 75.7 °F 85% 29.79 in 10.0 mi SSE 19.6 mph 27.6 mph N/A   Scattered Clouds
3:55 AM 80.8 °F 87.2 °F 76.5 °F 87% 29.78 in 7.0 mi South 16.1 mph 23.0 mph N/A   Scattered Clouds
4:15 AM 81.1 °F 87.2 °F 75.2 °F 82% 29.78 in 10.0 mi South 15.0 mph 20.7 mph N/A   Scattered Clouds
4:35 AM 81.5 °F 87.8 °F 75.2 °F 81% 29.78 in 10.0 mi South 17.3 mph 23.0 mph N/A   Clear
4:55 AM 81.7 °F 88.7 °F 76.1 °F 83% 29.77 in 10.0 mi SSE 16.1 mph 19.6 mph N/A Thunderstorm Mostly Cloudy
5:15 AM 81.7 °F 88.7 °F 76.1 °F 83% 29.77 in 10.0 mi SSE 15.0 mph 19.6 mph N/A   Mostly Cloudy
5:35 AM 81.9 °F 89.5 °F 76.5 °F 84% 29.78 in 10.0 mi South 12.7 mph 18.4 mph N/A   Mostly Cloudy
5:55 AM 82.2 °F 89.9 °F 76.3 °F 82% 29.78 in 10.0 mi SSE 13.8 mph 21.9 mph N/A   Overcast
6:15 AM 82.4 °F 90.3 °F 76.5 °F 82% 29.77 in 10.0 mi SSE 15.0 mph 20.7 mph N/A   Overcast
6:35 AM 82.4 °F 90.6 °F 76.8 °F 83% 29.77 in 10.0 mi SSE 10.4 mph - N/A Thunderstorm Overcast
6:55 AM 82.4 °F 90.9 °F 77.2 °F 84% 29.77 in 7.0 mi SSE 12.7 mph - N/A   Overcast
7:15 AM 82.4 °F 91.5 °F 77.7 °F 86% 29.78 in 7.0 mi SSE 10.4 mph 17.3 mph N/A   Overcast
7:35 AM 82.8 °F 91.6 °F 77.2 °F 83% 29.78 in 7.0 mi South 11.5 mph 18.4 mph N/A   Overcast
7:55 AM 80.6 °F 87.1 °F 77.0 °F 89% 29.78 in 7.0 mi South 9.2 mph - N/A   Overcast
8:15 AM 82.8 °F 92.6 °F 78.1 °F 86% 29.79 in 7.0 mi SSE 13.8 mph - N/A   Mostly Cloudy
8:35 AM 82.9 °F 91.5 °F 76.6 °F 81% 29.79 in 7.0 mi SSE 15.0 mph 21.9 mph N/A   Mostly Cloudy
8:55 AM 83.1 °F 93.3 °F 78.1 °F 85% 29.79 in 5.0 mi SSE 11.5 mph 21.9 mph N/A   Haze
9:15 AM 84.2 °F 94.9 °F 77.7 °F 81% 29.79 in 7.0 mi SSE 15.0 mph 18.4 mph N/A   Scattered Clouds
9:35 AM 84.2 °F 93.8 °F 76.6 °F 78% 29.80 in 10.0 mi SSE 16.1 mph 25.3 mph N/A   Mostly Cloudy
9:55 AM 83.5 °F 92.6 °F 76.6 °F 80% 29.80 in 7.0 mi SSE 12.7 mph 20.7 mph N/A   Mostly Cloudy
10:15 AM 85.5 °F 96.8 °F 77.5 °F 77% 29.79 in 7.0 mi SSE 15.0 mph 20.7 mph N/A   Mostly Cloudy
10:35 AM 84.2 °F 94.9 °F 77.7 °F 81% 29.80 in 7.0 mi South 15.0 mph 21.9 mph N/A   Mostly Cloudy
10:55 AM 84.4 °F 95.0 °F 77.7 °F 80% 29.80 in 7.0 mi South 10.4 mph - N/A Thunderstorm Mostly Cloudy
11:15 AM 87.6 °F 99.7 °F 77.4 °F 71% 29.80 in 10.0 mi South 16.1 mph 21.9 mph N/A   Scattered Clouds
11:35 AM 85.5 °F 96.8 °F 77.5 °F 77% 29.79 in 7.0 mi South 16.1 mph 20.7 mph N/A   Mostly Cloudy
11:55 AM 84.6 °F 95.5 °F 77.7 °F 80% 29.78 in 7.0 mi SSE 11.5 mph 19.6 mph N/A   Mostly Cloudy
12:15 PM 82.4 °F 90.3 °F 76.5 °F 82% 29.78 in 7.0 mi SSE 15.0 mph 20.7 mph N/A Thunderstorm Overcast
12:35 PM 83.3 °F 91.8 °F 76.3 °F 79% 29.78 in 10.0 mi SSE 17.3 mph 23.0 mph N/A   Mostly Cloudy
12:55 PM 84.4 °F 94.6 °F 77.2 °F 79% 29.77 in 10.0 mi SSE 15.0 mph 20.7 mph N/A   Scattered Clouds
1:15 PM 85.8 °F 98.3 °F 78.1 °F 78% 29.76 in 7.0 mi SSE 17.3 mph - N/A   Scattered Clouds
1:35 PM 87.4 °F 99.2 °F 77.0 °F 71% 29.76 in 10.0 mi South 15.0 mph 21.9 mph N/A   Scattered Clouds
1:55 PM 86.9 °F 98.8 °F 77.2 °F 73% 29.76 in 10.0 mi South 15.0 mph 20.7 mph N/A   Scattered Clouds
2:15 PM 88.2 °F 100.7 °F 77.2 °F 70% 29.75 in 10.0 mi South 16.1 mph 21.9 mph N/A   Scattered Clouds
2:35 PM 87.4 °F 99.8 °F 77.4 °F 72% 29.73 in 10.0 mi South 16.1 mph 19.6 mph N/A   Scattered Clouds
2:55 PM 85.8 °F 97.8 °F 77.9 °F 77% 29.74 in 7.0 mi South 16.1 mph 21.9 mph N/A   Mostly Cloudy
3:15 PM 85.3 °F 100.5 °F 80.6 °F 86% 29.73 in 7.0 mi SSE 10.4 mph 17.3 mph 0.01 in   Overcast
3:35 PM 84.9 °F 96.1 °F 77.7 °F 79% 29.73 in 7.0 mi South 12.7 mph - 0.01 in Thunderstorm Mostly Cloudy
3:55 PM 84.4 °F 94.6 °F 77.4 °F 79% 29.71 in 10.0 mi South 13.8 mph - 0.01 in   Mostly Cloudy
4:15 PM 84.4 °F 94.6 °F 77.4 °F 79% 29.71 in 10.0 mi South 10.4 mph 18.4 mph N/A   Mostly Cloudy
4:35 PM 84.2 °F 94.1 °F 77.2 °F 79% 29.71 in 7.0 mi South 11.5 mph - N/A   Scattered Clouds
4:55 PM 84.0 °F 93.7 °F 77.0 °F 79% 29.72 in 7.0 mi South 10.4 mph - N/A   Scattered Clouds
5:15 PM 84.2 °F 94.5 °F 77.5 °F 80% 29.71 in 7.0 mi South 11.5 mph - N/A   Mostly Cloudy
5:35 PM 84.2 °F 94.5 °F 77.4 °F 80% 29.71 in 7.0 mi South 12.7 mph - N/A   Overcast
5:55 PM 84.6 °F 94.7 °F 77.2 °F 78% 29.71 in 7.0 mi South 15.0 mph 18.4 mph N/A   Mostly Cloudy
6:15 PM 84.6 °F 95.1 °F 77.5 °F 79% 29.70 in 7.0 mi South 9.2 mph - N/A   Overcast
6:35 PM 84.2 °F 94.5 °F 77.4 °F 80% 29.70 in 7.0 mi South 10.4 mph - N/A   Mostly Cloudy
6:55 PM 83.8 °F 93.5 °F 77.0 °F 80% 29.70 in 7.0 mi South 11.5 mph 16.1 mph N/A   Overcast
7:15 PM 83.5 °F 92.9 °F 77.2 °F 81% 29.70 in 7.0 mi SSE 10.4 mph - N/A   Overcast
7:35 PM 83.3 °F 92.4 °F 77.0 °F 81% 29.70 in 7.0 mi South 10.4 mph - N/A   Overcast
7:55 PM 83.3 °F 92.8 °F 77.2 °F 82% 29.71 in 10.0 mi SSE 11.5 mph - N/A   Overcast
8:15 PM 83.3 °F 92.4 °F 76.8 °F 81% 29.72 in 10.0 mi SSE 8.1 mph - N/A   Overcast
8:35 PM 83.3 °F 93.1 °F 77.5 °F 83% 29.73 in 7.0 mi SSE 9.2 mph - N/A   Overcast
8:55 PM 83.3 °F 92.8 °F 77.4 °F 82% 29.73 in 7.0 mi SSE 8.1 mph - N/A Thunderstorm Overcast
9:15 PM 83.3 °F 93.1 °F 77.5 °F 83% 29.73 in 7.0 mi SSE 8.1 mph - N/A   Overcast
9:35 PM 83.3 °F 92.8 °F 77.4 °F 82% 29.73 in 7.0 mi South 6.9 mph - N/A   Mostly Cloudy
9:55 PM 82.9 °F 91.8 °F 77.0 °F 82% 29.73 in 7.0 mi South 6.9 mph - N/A   Scattered Clouds
10:15 PM 82.8 °F 91.6 °F 77.2 °F 83% 29.74 in 7.0 mi South 6.9 mph - N/A Thunderstorm Scattered Clouds
10:35 PM 82.8 °F 91.9 °F 77.5 °F 84% 29.74 in 7.0 mi South 3.5 mph - N/A   Overcast
10:55 PM 82.8 °F 91.9 °F 77.5 °F 84% 29.75 in 7.0 mi Calm Calm - N/A   Overcast
11:15 PM 81.0 °F 87.5 °F 76.3 °F 86% 29.74 in 7.0 mi WNW 6.9 mph - N/A   Overcast
11:35 PM 80.6 °F 86.8 °F 76.3 °F 87% 29.74 in 10.0 mi Calm Calm - N/A   Overcast
11:55 PM 80.8 °F 87.4 °F 77.0 °F 88% 29.75 in 10.0 mi SSW 4.6 mph - N/A Rain Light Rain